[[{"header":{"parameterUnit":"m.s-1","parameterCategory":1,"la1":30.2992,"la2":30.254,"lo1":-89.0895,"lo2":-89.0443,"dy":0.0025,"dx":0.0025,"nx":19,"ny":19,"refTime":"2026-04-10T09:00:00:Z","depth":0,"parameterNumber":2,"parameterNumberName":"U-component_of_WINDS"},"data":[0,0,0,-1.8978,-1.8978,-1.8985,-1.8985,-1.9012,-1.9012,0,0,0,0,0,0,0,0,0,0,0,-1.8986,-1.8987,-1.8978,-1.8978,-1.8985,-1.8985,-1.9012,-1.9012,0,0,0,0,0,0,0,0,0,0,0,-1.8986,-1.8987,-1.8987,-1.8978,-1.8985,-1.8985,-1.9012,-1.9,0,0,0,0,0,0,0,0,0,0,-1.8991,-1.9009,-1.8987,-1.8988,-1.8978,-1.8985,-1.8985,-1.8999,-1.9001,-1.9017,0,-1.9033,0,-1.9023,-1.9015,-1.9016,0,0,0,-1.8971,-1.9008,-1.9,-1.8988,-1.8979,-1.8985,-1.898,-1.9,-1.9002,-1.9019,-1.9033,-1.9034,-1.9024,-1.9016,-1.9016,-1.913,-1.9131,0,0,-1.897,-1.8994,-1.8999,-1.9001,-1.9001,-1.898,-1.898,-1.9001,-1.9018,-1.9033,-1.9034,-1.9024,-1.9016,-1.9016,-1.9129,-1.913,0,0,0,-1.8974,-1.8994,-1.8985,-1.9001,-1.9001,-1.898,-1.8981,-1.9017,-1.9012,-1.9034,-1.9024,-1.9016,-1.9017,-1.9128,-1.913,-1.9196,0,0,0,-1.8974,-1.8996,-1.8985,-1.9,-1.9001,-1.9009,-1.8997,-1.9011,-1.9013,-1.9024,-1.9016,-1.9017,-1.9127,-1.9129,-1.9192,-1.9224,0,0,0,-1.8982,-1.8997,-1.9001,-1.9001,-1.9004,-1.9008,-1.9004,-1.9011,-1.9007,-1.9016,-1.9017,-1.9127,-1.9129,-1.9189,-1.9218,-1.9261,0,0,0,-1.8999,-1.9061,-1.9003,-1.9069,-1.9005,-1.9049,-1.9004,-1.9036,-1.9051,-1.9016,-1.9127,-1.913,-1.9188,-1.9214,-1.9257,-1.93,-1.9321,0,0,-1.909,-1.9073,-1.911,-1.9058,-1.9119,-1.9046,-1.9117,-1.9109,-1.9089,-1.9118,-1.912,-1.9194,-1.9218,-1.926,-1.9427,-1.9444,0,0,0,-1.9147,-1.9174,-1.9185,-1.92,-1.9195,-1.9194,-1.9172,-1.9169,-1.9192,-1.9108,-1.922,-1.9233,-1.9257,-1.9277,-1.9291,-1.931,-1.914,-1.914,-1.9139,-1.9311,-1.9281,-1.934,-1.9311,-1.9327,-1.9304,-1.9314,-1.9306,-1.9272,-1.9299,-1.9307,-1.9412,-1.9436,-1.9446,-1.9466,-1.9328,-1.9328,-1.9328,-1.9328,-1.9442,-1.9476,-1.9428,-1.9468,-1.9437,-1.9471,-1.9451,-1.9426,-1.9453,-1.9403,-1.9423,-1.9371,-1.9465,-1.9481,-1.9333,-1.9332,-1.9332,-1.9331,-1.9331,-1.9546,-1.9557,-1.9552,-1.957,-1.9588,-1.9557,-1.9585,-1.9555,-1.9528,-1.9547,-1.9552,-1.9551,-1.9546,-1.9552,-1.9552,-1.9552,-1.9553,-1.9553,-1.9553,-1.9656,-1.9648,-1.9674,-1.9674,-1.968,-1.9684,-1.9662,-1.9667,-1.9665,-1.9641,-1.9641,-1.9604,-1.948,-1.9449,-1.9559,-1.9558,-1.9557,-1.9556,-1.9556,-1.98,-1.9762,-1.9804,-1.981,-1.9807,-1.9827,-1.9788,-1.9801,-1.9801,-1.9816,-1.9775,-1.9688,-1.9668,-1.9657,-1.9631,-1.9781,-1.9781,-1.9781,-1.9781,-1.9887,-1.9874,-1.991,-1.9921,-1.9928,-1.9897,-1.9946,-1.9929,-1.9907,-1.9905,-1.9879,-1.9842,-1.9832,-1.9818,-1.9803,-1.9779,-1.9963,-1.9963,-1.9964,-1.9974,-1.996,-2.0007,-1.9983,-1.9979,-1.9976,-2.002,-2.0035,-2.0002,-1.997,-1.9903,-1.9895,-1.9836,-1.9818,-1.9785,-1.9763,-1.9717,0,0]},{"header":{"parameterUnit":"m.s-1","parameterCategory":1,"la1":30.2992,"la2":30.254,"lo1":-89.0895,"lo2":-89.0443,"dy":0.0025,"dx":0.0025,"nx":19,"ny":19,"refTime":"2026-04-10T09:00:00:Z","depth":0,"parameterNumber":3,"parameterNumberName":"V-component_of_WINDS"},"data":[0,0,0,-0.2341,-0.2344,-0.2484,-0.2485,-0.2646,-0.2647,0,0,0,0,0,0,0,0,0,0,0,-0.2286,-0.2287,-0.2341,-0.2344,-0.2484,-0.2485,-0.2646,-0.2647,0,0,0,0,0,0,0,0,0,0,0,-0.2286,-0.2286,-0.2287,-0.2345,-0.2484,-0.2485,-0.2645,-0.2547,0,0,0,0,0,0,0,0,0,0,-0.2414,-0.2349,-0.2286,-0.2287,-0.2345,-0.2484,-0.2485,-0.2542,-0.2553,-0.2574,0,-0.2585,0,-0.2618,-0.2656,-0.2657,0,0,0,-0.2356,-0.234,-0.239,-0.2287,-0.2347,-0.2483,-0.2424,-0.2549,-0.256,-0.2587,-0.2588,-0.2595,-0.2621,-0.2657,-0.2658,-0.2731,-0.2731,0,0,-0.2348,-0.2305,-0.2381,-0.2397,-0.237,-0.242,-0.2428,-0.2556,-0.2555,-0.2589,-0.2599,-0.2624,-0.2658,-0.2659,-0.2731,-0.2731,0,0,0,-0.2318,-0.2299,-0.2346,-0.2389,-0.2416,-0.2423,-0.2434,-0.255,-0.2568,-0.2601,-0.2625,-0.2659,-0.2661,-0.2731,-0.2731,-0.2677,0,0,0,-0.2314,-0.2281,-0.2342,-0.2317,-0.2413,-0.2484,-0.2423,-0.2559,-0.2575,-0.2625,-0.2659,-0.2662,-0.2732,-0.2731,-0.2679,-0.266,0,0,0,-0.2282,-0.2278,-0.2293,-0.2314,-0.2372,-0.2483,-0.2509,-0.2564,-0.259,-0.2657,-0.2662,-0.2732,-0.2731,-0.2681,-0.2663,-0.2665,0,0,0,-0.2236,-0.2245,-0.2291,-0.2312,-0.2371,-0.2447,-0.2509,-0.2569,-0.262,-0.266,-0.2731,-0.2731,-0.2682,-0.2665,-0.2667,-0.2659,-0.2652,0,0,-0.2224,-0.2242,-0.2258,-0.2303,-0.2359,-0.2429,-0.248,-0.257,-0.2618,-0.2691,-0.2694,-0.2678,-0.2663,-0.2666,-0.2625,-0.2619,0,0,0,-0.2239,-0.225,-0.2274,-0.2319,-0.2385,-0.2441,-0.2527,-0.2561,-0.2624,-0.2645,-0.2682,-0.2674,-0.2677,-0.2676,-0.267,-0.2676,-0.2728,-0.2728,-0.2728,-0.2161,-0.2219,-0.2248,-0.2322,-0.2365,-0.2452,-0.2493,-0.2554,-0.2603,-0.261,-0.2632,-0.26,-0.2596,-0.2593,-0.2598,-0.2633,-0.2633,-0.2633,-0.2632,-0.2149,-0.2172,-0.2233,-0.2284,-0.2346,-0.239,-0.2475,-0.2508,-0.2559,-0.2589,-0.2595,-0.2621,-0.2584,-0.2592,-0.2629,-0.263,-0.263,-0.263,-0.2631,-0.2103,-0.2125,-0.2163,-0.2232,-0.228,-0.2356,-0.2402,-0.2458,-0.2512,-0.2517,-0.2547,-0.2548,-0.2556,-0.2527,-0.2527,-0.2527,-0.2527,-0.2527,-0.2527,-0.2041,-0.2086,-0.2116,-0.2185,-0.222,-0.2275,-0.2362,-0.24,-0.2456,-0.2493,-0.2494,-0.2541,-0.2569,-0.2574,-0.2525,-0.2525,-0.2526,-0.2526,-0.2526,-0.2007,-0.2023,-0.2069,-0.2104,-0.219,-0.2234,-0.2304,-0.2375,-0.2415,-0.2436,-0.2482,-0.2493,-0.2517,-0.2522,-0.2527,-0.2469,-0.2469,-0.2469,-0.2469,-0.1969,-0.1985,-0.2044,-0.2096,-0.2154,-0.2221,-0.2274,-0.2342,-0.2416,-0.2444,-0.2461,-0.2472,-0.2474,-0.2498,-0.2503,-0.2509,-0.2447,-0.2447,-0.2447,-0.1951,-0.1975,-0.2007,-0.2076,-0.2147,-0.2208,-0.2259,-0.2319,-0.2407,-0.2447,-0.2468,-0.2469,-0.2488,-0.2491,-0.2532,-0.2539,-0.255,0,0]}]]